TimeCDT,TemperatureF,Dew PointF,Humidity,Sea Level PressureIn,VisibilityMPH,Wind Direction,Wind SpeedMPH,Gust SpeedMPH,PrecipitationIn,Events,Conditions,WindDirDegrees,DateUTC
12:15 AM,77.0,69.8,78,29.97,10.0,ESE,4.6,-,N/A,,Scattered Clouds,120,2013-09-04 05:15:00
12:35 AM,78.8,69.8,74,29.98,10.0,NE,4.6,-,N/A,,Mostly Cloudy,40,2013-09-04 05:35:00
12:55 AM,78.8,69.8,74,29.97,10.0,Calm,Calm,-,N/A,,Overcast,0,2013-09-04 05:55:00
1:15 AM,78.8,71.6,78,29.97,10.0,SSW,3.5,-,N/A,,Mostly Cloudy,210,2013-09-04 06:15:00
1:35 AM,78.8,71.6,78,29.97,10.0,NE,3.5,-,N/A,,Mostly Cloudy,50,2013-09-04 06:35:00
1:55 AM,77.0,71.6,83,29.97,10.0,North,3.5,-,N/A,,Scattered Clouds,350,2013-09-04 06:55:00
2:15 AM,75.2,71.6,89,29.97,10.0,Calm,Calm,-,N/A,,Scattered Clouds,0,2013-09-04 07:15:00
2:35 AM,75.2,71.6,89,29.96,10.0,Calm,Calm,-,N/A,,Partly Cloudy,0,2013-09-04 07:35:00
2:55 AM,75.2,71.6,89,29.96,10.0,North,3.5,-,N/A,,Partly Cloudy,360,2013-09-04 07:55:00
3:15 AM,75.2,71.6,89,29.96,10.0,Calm,Calm,-,N/A,,Clear,0,2013-09-04 08:15:00
3:35 AM,75.2,71.6,89,29.96,10.0,Calm,Calm,-,N/A,,Partly Cloudy,0,2013-09-04 08:35:00
3:55 AM,75.2,71.6,89,29.97,10.0,SE,4.6,-,N/A,,Partly Cloudy,140,2013-09-04 08:55:00
4:15 AM,75.2,71.6,89,29.97,10.0,ESE,3.5,-,N/A,,Clear,110,2013-09-04 09:15:00
4:35 AM,73.4,69.8,88,29.97,10.0,SE,3.5,-,N/A,,Clear,140,2013-09-04 09:35:00
4:55 AM,75.2,69.8,83,29.98,10.0,SE,3.5,-,N/A,,Clear,130,2013-09-04 09:55:00
5:15 AM,73.4,69.8,88,29.98,10.0,SE,4.6,-,N/A,,Clear,130,2013-09-04 10:15:00
5:35 AM,73.4,69.8,88,29.99,10.0,SE,3.5,-,N/A,,Clear,130,2013-09-04 10:35:00
5:55 AM,73.4,69.8,88,30.00,10.0,Calm,Calm,-,N/A,,Clear,0,2013-09-04 10:55:00
6:15 AM,73.4,69.8,88,30.00,10.0,Calm,Calm,-,N/A,,Clear,0,2013-09-04 11:15:00
6:35 AM,71.6,69.8,94,30.00,10.0,Calm,Calm,-,N/A,,Clear,0,2013-09-04 11:35:00
6:55 AM,71.6,69.8,94,30.01,10.0,Calm,Calm,-,N/A,,Clear,0,2013-09-04 11:55:00
7:15 AM,71.6,69.8,94,30.02,10.0,Calm,Calm,-,N/A,,Clear,0,2013-09-04 12:15:00
7:35 AM,73.4,69.8,88,30.02,10.0,Calm,Calm,-,N/A,,Clear,0,2013-09-04 12:35:00
7:55 AM,73.4,71.6,94,30.03,10.0,Calm,Calm,-,N/A,,Clear,0,2013-09-04 12:55:00
8:15 AM,75.2,71.6,89,30.04,10.0,Calm,Calm,-,N/A,,Clear,0,2013-09-04 13:15:00
8:35 AM,78.8,73.4,83,30.04,10.0,Calm,Calm,-,N/A,,Clear,0,2013-09-04 13:35:00
8:55 AM,78.8,73.4,83,30.05,10.0,SE,3.5,-,N/A,,Clear,140,2013-09-04 13:55:00
9:15 AM,80.6,73.4,79,30.05,10.0,SSE,3.5,-,N/A,,Clear,160,2013-09-04 14:15:00
9:35 AM,82.4,73.4,74,30.06,10.0,SE,3.5,-,N/A,,Clear,130,2013-09-04 14:35:00
9:55 AM,84.2,73.4,70,30.06,10.0,Calm,Calm,-,N/A,,Clear,0,2013-09-04 14:55:00
10:15 AM,84.2,73.4,70,30.05,10.0,SSE,3.5,-,N/A,,Clear,150,2013-09-04 15:15:00
10:35 AM,89.6,73.4,59,30.06,10.0,Calm,Calm,-,N/A,,Clear,0,2013-09-04 15:35:00
10:55 AM,89.6,73.4,59,30.06,10.0,ESE,5.8,-,N/A,,Clear,110,2013-09-04 15:55:00
11:15 AM,91.4,73.4,55,30.06,10.0,SE,3.5,-,N/A,,Clear,130,2013-09-04 16:15:00
11:35 AM,91.4,73.4,55,30.05,10.0,East,5.8,-,N/A,,Partly Cloudy,80,2013-09-04 16:35:00
11:55 AM,91.4,71.6,52,30.04,10.0,East,9.2,-,N/A,,Scattered Clouds,90,2013-09-04 16:55:00
12:15 PM,93.2,71.6,49,30.04,10.0,SSE,9.2,-,N/A,,Partly Cloudy,160,2013-09-04 17:15:00
12:35 PM,93.2,71.6,49,30.04,10.0,East,5.8,-,N/A,,Clear,90,2013-09-04 17:35:00
12:55 PM,95.0,71.6,47,30.03,10.0,South,3.5,-,N/A,,Scattered Clouds,180,2013-09-04 17:55:00
1:15 PM,95.0,71.6,47,30.02,10.0,SSE,3.5,-,N/A,,Mostly Cloudy,150,2013-09-04 18:15:00
1:35 PM,93.2,69.8,46,30.02,10.0,NNE,3.5,-,N/A,,Mostly Cloudy,30,2013-09-04 18:35:00
1:55 PM,86.0,66.2,51,30.01,10.0,ENE,8.1,26.5,N/A,,Scattered Clouds,60,2013-09-04 18:55:00
2:15 PM,86.0,73.4,66,30.01,10.0,SW,13.8,18.4,N/A,Thunderstorm,Thunderstorm,220,2013-09-04 19:15:00
2:35 PM,78.8,71.6,78,30.02,4.0,SSE,23.0,28.8,0.26,Thunderstorm,Thunderstorm,160,2013-09-04 19:35:00
2:55 PM,75.2,71.6,89,30.04,10.0,North,6.9,-,0.28,Thunderstorm,Mostly Cloudy,10,2013-09-04 19:55:00
3:15 PM,75.2,73.4,94,30.02,10.0,NW,5.8,-,0.02,Thunderstorm,Thunderstorm,310,2013-09-04 20:15:00
3:35 PM,75.2,73.4,94,30.02,10.0,North,13.8,17.3,0.02,Thunderstorm,Clear,350,2013-09-04 20:35:00
3:55 PM,77.0,73.4,89,30.00,10.0,NNW,8.1,-,0.02,Thunderstorm,Clear,340,2013-09-04 20:55:00
4:15 PM,77.0,73.4,89,29.99,10.0,NNW,4.6,-,N/A,,Clear,340,2013-09-04 21:15:00
4:35 PM,78.8,73.4,83,29.98,10.0,NNE,3.5,-,N/A,,Clear,20,2013-09-04 21:35:00
4:55 PM,78.8,73.4,83,29.98,10.0,Calm,Calm,-,N/A,,Clear,0,2013-09-04 21:55:00
5:15 PM,82.4,73.4,74,29.99,10.0,Calm,Calm,-,N/A,,Clear,0,2013-09-04 22:15:00
5:35 PM,82.4,73.4,74,29.98,10.0,ESE,3.5,-,N/A,,Clear,120,2013-09-04 22:35:00
5:55 PM,84.2,73.4,70,29.99,10.0,SE,6.9,-,N/A,,Clear,130,2013-09-04 22:55:00
6:15 PM,82.4,69.8,66,29.99,10.0,ESE,10.4,-,N/A,,Clear,110,2013-09-04 23:15:00
6:35 PM,82.4,69.8,66,29.97,10.0,East,5.8,-,N/A,,Clear,100,2013-09-04 23:35:00
6:55 PM,82.4,71.6,70,29.98,10.0,SE,4.6,-,N/A,,Clear,140,2013-09-04 23:55:00
7:15 PM,80.6,71.6,74,30.00,10.0,Calm,Calm,-,N/A,,Scattered Clouds,0,2013-09-05 00:15:00
7:35 PM,80.6,71.6,74,30.01,10.0,Calm,Calm,-,N/A,,Mostly Cloudy,0,2013-09-05 00:35:00
7:55 PM,80.6,73.4,79,30.01,10.0,Calm,Calm,-,N/A,,Mostly Cloudy,0,2013-09-05 00:55:00
8:15 PM,78.8,73.4,83,30.02,10.0,ESE,4.6,-,N/A,,Mostly Cloudy,120,2013-09-05 01:15:00
8:35 PM,78.8,71.6,78,30.02,10.0,Calm,Calm,-,N/A,,Partly Cloudy,0,2013-09-05 01:35:00
8:55 PM,78.8,73.4,83,30.03,10.0,Calm,Calm,-,N/A,,Scattered Clouds,0,2013-09-05 01:55:00
9:15 PM,78.8,71.6,78,30.03,10.0,South,3.5,-,N/A,,Scattered Clouds,170,2013-09-05 02:15:00
9:35 PM,77.0,71.6,83,30.04,10.0,Calm,Calm,-,N/A,,Mostly Cloudy,0,2013-09-05 02:35:00
9:55 PM,75.2,71.6,89,30.04,10.0,East,4.6,-,N/A,,Partly Cloudy,90,2013-09-05 02:55:00
10:15 PM,75.2,71.6,89,30.04,10.0,SE,4.6,-,N/A,,Clear,140,2013-09-05 03:15:00
10:35 PM,75.2,71.6,89,30.05,10.0,ESE,5.8,-,N/A,,Clear,120,2013-09-05 03:35:00
10:55 PM,75.2,71.6,89,30.05,10.0,Calm,Calm,-,N/A,,Clear,0,2013-09-05 03:55:00
11:15 PM,75.2,71.6,89,30.05,10.0,NNW,3.5,-,N/A,,Clear,340,2013-09-05 04:15:00
11:35 PM,73.4,71.6,94,30.05,10.0,Calm,Calm,-,N/A,,Clear,0,2013-09-05 04:35:00
11:55 PM,73.4,71.6,94,30.06,10.0,Calm,Calm,-,N/A,,Clear,0,2013-09-05 04:55:00